Wind_Speed
7 7 7 8 8 8 8 7 7 7 7 7 7 7 7 7 7 7 7 7 6 6 6 7 10 12 14 14 13 11 9 7 7 9 8 5 5 7 6 9 10 10 10 10 11 11 11 11 11 12 13 12 12 11 9 9 8 5 5 4 5 4 2 3 4 1 3 6 6 8 8 8 8 8 7 6 6 6 5 2 1 2 1 2 3 3 3 3
7 7 7 7 8 8 8 8 8 7 7 7 7 7 7 7 7 7 7 7 7 6 6 5 6 9 12 14 14 13 12 10 10 10 5 4 8 12 11 11 11 11 10 10 12 13 12 12 12 12 13 12 11 11 10 9 8 5 6 7 6 5 5 7 7 4 5 7 7 7 5 6 7 8 7 6 6 5 3 5 4 2 2 2 2 3 3 3
8 8 8 8 8 8 8 8 8 8 8 7 7 7 7 7 7 7 7 6 6 7 6 5 5 6 8 12 15 14 14 12 13 11 6 7 11 13 13 12 12 12 11 12 14 15 15 13 12 12 12 11 11 13 12 10 9 8 9 8 6 7 8 11 12 10 6 8 9 5 3 6 7 7 6 6 6 3 3 5 4 2 2 2 2 3 3 3
9 9 9 8 9 9 9 9 9 9 9 9 8 8 7 7 7 7 7 7 6 6 6 6 6 5 6 8 12 15 15 15 15 13 10 10 12 14 14 13 13 14 13 14 14 15 15 13 13 13 12 11 12 13 13 12 12 10 9 9 9 9 9 10 16 16 10 9 10 8 7 9 10 7 6 7 5 4 4 3 2 2 1 2 3 3 3 2
10 10 10 10 9 9 10 9 9 10 10 10 9 9 8 8 7 7 6 6 6 6 6 6 6 5 5 6 9 12 16 17 16 15 13 12 13 15 15 14 14 14 14 15 15 16 15 13 14 15 13 12 12 12 13 14 15 14 10 8 11 12 11 9 16 20 15 11 11 11 10 10 11 8 8 8 4 3 1 1 3 3 2 1 3 4 3 2
11 11 11 11 11 11 11 10 10 10 10 10 10 10 9 9 8 7 7 6 6 6 6 6 5 5 6 5 6 9 14 18 17 15 15 14 14 15 16 16 14 14 15 15 16 17 16 15 15 14 14 13 11 12 13 13 14 18 15 9 9 12 11 10 15 20 20 16 13 13 9 9 12 10 8 7 4 4 2 3 4 5 4 3 2 3 3 2
12 12 11 11 11 12 12 11 11 11 11 10 10 10 10 9 9 8 8 7 6 6 5 5 5 4 5 5 6 8 10 14 17 17 18 17 17 17 16 16 15 14 13 15 17 17 17 16 15 15 16 14 11 12 12 11 13 18 17 11 7 12 10 10 12 17 22 20 15 10 8 10 12 13 10 10 6 7 6 5 4 5 5 3 1 2 3 2
12 12 11 12 12 12 12 12 12 12 12 11 11 11 10 10 10 9 9 8 7 7 6 5 5 5 4 5 6 7 7 10 16 19 19 18 17 18 18 17 16 14 14 16 18 19 19 18 16 17 17 14 13 14 13 14 17 18 18 12 7 11 8 9 11 14 19 21 16 10 8 10 12 14 12 10 8 7 7 6 5 4 5 4 2 1 2 2
13 13 13 12 12 13 13 13 13 12 12 12 12 12 11 11 11 10 10 9 8 8 7 6 5 5 5 5 5 5 7 9 13 17 18 18 17 17 18 19 17 15 15 16 17 19 18 17 18 18 17 18 19 18 15 16 18 16 18 15 8 7 1 5 10 12 16 20 17 12 9 11 13 12 11 13 10 7 7 7 6 5 5 5 3 2 2 2
15 15 14 14 13 14 14 14 13 13 13 13 13 13 12 12 11 11 11 10 9 9 8 7 6 6 6 6 5 4 5 8 11 14 16 17 18 17 17 19 18 17 16 16 17 16 15 17 20 20 22 24 23 21 19 18 17 15 16 13 10 9 7 5 8 11 16 20 19 16 13 13 13 10 10 14 10 7 8 8 7 7 6 6 3 2 2 2
17 16 15 15 14 14 14 14 14 13 13 13 13 13 13 12 12 12 11 10 9 9 9 8 7 7 7 7 6 5 4 6 10 12 13 14 18 19 18 18 18 18 17 16 16 15 16 20 23 25 26 26 24 22 20 19 18 16 15 12 11 12 9 8 8 9 16 19 21 21 17 14 13 9 8 10 8 7 10 9 7 7 6 6 4 2 1 1
18 17 17 16 16 15 15 15 14 14 14 14 13 13 13 12 12 12 12 11 10 10 9 9 8 8 9 8 6 6 4 5 8 10 11 11 14 19 21 21 20 19 18 17 17 17 19 22 25 27 25 24 24 23 22 22 21 17 15 13 12 14 13 11 8 9 16 18 21 23 19 18 16 12 8 7 6 6 10 9 7 6 6 6 5 3 1 0
18 18 18 17 17 17 16 16 15 15 15 15 14 14 14 13 12 13 13 12 11 11 10 9 9 8 10 10 7 7 5 4 7 9 10 10 11 15 20 23 23 21 19 19 19 19 20 22 24 24 24 26 26 23 21 23 23 18 16 14 14 17 18 15 10 9 14 17 22 22 20 22 20 15 9 6 5 4 8 9 6 6 6 6 5 4 3 2
19 19 19 18 18 17 17 17 17 17 17 17 16 16 16 14 14 14 14 13 12 12 11 10 9 9 12 11 7 8 6 5 8 9 10 10 10 12 16 21 24 24 22 21 21 20 21 22 23 23 26 27 26 25 22 22 23 20 17 14 14 16 20 19 16 12 13 18 23 20 18 22 22 17 11 8 5 3 7 9 7 6 6 6 5 5 4 2
19 20 20 19 19 19 18 18 18 18 18 18 17 18 18 16 16 16 16 15 13 13 12 11 9 10 14 13 7 8 8 8 8 8 10 11 11 11 13 17 21 25 25 24 23 22 22 22 22 22 23 24 26 27 24 23 22 19 16 12 11 14 18 19 16 14 15 19 24 21 19 22 22 19 14 10 7 3 5 8 7 6 5 5 5 5 4 3
20 20 20 21 21 20 20 20 20 20 20 20 19 20 19 17 17 18 18 17 15 15 14 12 10 11 15 14 9 9 10 11 9 8 9 11 12 12 12 14 17 22 25 26 26 25 24 23 21 20 21 23 25 26 26 26 24 21 17 10 8 12 15 16 13 13 16 20 25 22 20 22 22 20 16 12 8 5 6 7 8 6 4 5 5 4 4 2
22 22 22 22 22 22 21 21 21 21 22 21 21 22 20 18 19 20 19 18 17 18 16 13 11 12 15 14 13 13 12 12 11 9 9 10 12 12 12 14 15 18 22 26 28 27 27 25 22 21 21 22 23 25 26 25 23 21 17 11 11 14 15 17 15 15 18 19 19 17 17 20 23 22 18 12 7 6 6 7 9 7 5 5 5 4 4 3
24 25 25 24 24 23 23 22 22 22 24 23 22 23 22 20 20 21 20 19 18 20 19 15 12 13 14 14 15 16 13 12 13 12 11 10 11 12 12 14 15 16 19 23 26 29 29 27 25 23 22 22 22 24 22 18 18 18 15 12 13 16 15 16 17 17 17 16 15 14 17 21 24 24 20 15 10 8 6 7 9 9 6 5 5 5 5 4
26 26 27 27 27 26 25 25 24 24 24 25 24 23 23 22 22 22 21 21 20 21 20 17 14 14 16 17 17 18 14 13 16 15 13 12 11 12 13 14 14 16 17 19 22 26 29 29 29 25 22 21 20 20 18 15 18 19 17 15 16 18 16 15 17 16 14 14 16 16 18 22 24 23 19 15 13 11 9 8 8 9 8 5 5 5 5 6
28 28 29 30 30 29 28 27 27 26 26 27 26 25 24 23 24 23 22 22 23 23 22 20 16 15 18 20 19 18 17 16 17 16 15 15 14 13 13 14 14 16 16 16 18 22 27 29 29 24 21 21 19 18 17 18 22 22 20 20 19 20 20 18 16 13 11 13 16 17 19 22 25 24 20 15 15 13 10 8 7 8 9 7 6 5 6 6
30 30 30 31 32 32 31 30 30 29 29 29 28 28 26 26 27 25 23 23 23 24 23 22 19 15 19 24 22 19 19 17 17 17 17 17 17 15 14 15 15 15 15 17 18 21 24 25 24 23 23 23 21 20 19 21 25 25 23 22 21 20 22 22 20 17 16 16 16 17 18 22 25 27 26 21 16 13 11 9 7 7 8 9 8 7 7 7
33 32 32 33 34 35 34 32 32 32 31 31 30 30 30 30 31 29 26 23 23 25 24 24 23 17 19 26 24 21 20 17 16 18 19 20 19 17 16 15 14 15 17 19 19 19 20 17 17 22 25 25 24 23 22 22 26 27 25 23 21 20 22 24 24 24 23 21 21 19 18 22 26 28 29 24 17 13 12 10 9 8 9 10 10 9 9 7
34 34 33 34 35 37 37 35 34 35 34 33 32 32 32 32 33 31 29 25 23 28 27 25 25 20 18 23 26 24 19 17 18 19 21 21 20 20 18 16 16 17 17 17 17 19 17 13 14 21 26 28 27 26 25 25 27 28 29 27 23 23 24 22 23 23 22 19 18 19 20 25 29 31 30 24 19 15 13 11 11 9 8 11 12 11 9 8
36 35 34 34 34 37 39 37 36 36 36 34 33 34 35 35 34 32 31 29 23 25 30 29 26 21 20 26 29 24 18 18 19 20 21 22 22 22 20 19 19 18 16 16 18 19 16 13 16 21 24 28 29 29 28 28 27 28 29 28 25 26 25 20 21 21 18 15 15 19 23 28 32 33 29 25 22 17 14 14 13 10 8 11 13 11 9 9
37 37 36 35 35 36 39 40 38 38 37 36 35 36 37 37 37 34 33 33 25 22 30 33 28 24 25 29 28 26 23 21 20 22 23 23 24 23 21 22 21 18 17 18 20 19 17 16 19 21 22 26 29 30 30 28 27 28 29 27 25 29 26 20 20 20 18 19 23 25 27 31 33 33 30 26 22 18 15 14 13 12 10 10 12 11 9 10
39 39 38 37 37 36 40 42 40 40 40 38 36 38 39 38 39 37 36 37 29 24 29 33 30 27 27 28 28 28 27 22 22 25 23 23 24 23 24 24 20 18 19 21 22 19 16 17 20 21 22 24 27 30 31 30 29 28 26 26 27 31 30 24 23 24 21 23 25 27 28 31 34 33 31 26 22 19 17 14 14 15 13 10 10 11 10 10
41 41 40 40 39 37 39 42 43 42 41 40 38 39 41 40 40 38 37 39 34 28 30 32 31 29 28 29 29 28 26 24 26 25 21 22 23 24 26 24 20 19 21 25 22 15 15 19 20 21 22 24 25 27 30 32 32 26 22 27 30 32 32 29 29 30 26 23 23 24 24 27 32 32 29 25 22 22 19 14 14 16 15 10 9 10 11 11
43 42 42 41 41 39 39 42 44 44 43 42 41 40 42 41 41 39 40 42 37 30 31 33 33 31 29 30 29 26 25 26 27 26 24 25 24 25 26 23 21 21 24 27 21 14 18 20 19 20 23 24 22 23 27 32 32 24 22 29 32 31 31 31 33 34 29 26 27 26 24 27 31 29 27 27 27 25 20 14 15 16 15 12 9 10 11 12
45 44 44 43 43 43 41 41 43 45 45 43 43 42 42 42 42 41 42 44 38 33 33 33 33 32 31 31 29 27 27 26 26 28 29 28 27 26 25 23 25 25 27 29 22 19 20 18 19 23 24 23 21 20 24 30 31 24 25 30 31 32 32 33 36 36 33 34 34 29 27 29 29 29 30 30 30 26 19 15 16 16 16 14 11 11 11 13
47 46 46 45 45 46 45 43 43 45 47 45 44 44 44 44 43 44 46 44 37 35 36 33 34 34 33 33 31 30 29 27 28 30 31 29 28 28 27 27 30 29 30 30 24 21 21 20 23 24 22 21 21 22 24 27 29 27 29 31 32 36 36 37 39 38 39 43 40 32 28 30 32 33 35 34 30 24 19 17 16 16 17 15 14 14 14 15
50 50 50 49 48 48 49 48 45 45 47 47 47 46 45 46 46 47 48 42 36 38 38 35 36 38 37 36 35 34 33 32 32 34 33 32 30 30 29 29 30 31 31 31 24 20 23 24 24 21 21 22 23 25 25 26 28 29 32 33 35 39 41 42 42 43 46 49 43 34 29 33 37 37 35 33 28 22 21 20 17 15 15 15 14 16 17 17
54 54 54 53 52 51 51 51 49 47 47 48 49 48 48 48 49 50 47 41 40 44 42 39 41 41 41 41 40 39 38 37 36 36 36 35 34 33 32 29 29 30 31 28 23 22 24 24 22 22 23 23 25 25 25 26 28 30 34 36 38 40 44 46 46 48 51 49 43 36 34 38 42 38 33 32 27 23 22 20 16 14 14 15 15 16 18 19
56 56 56 57 57 56 54 53 53 51 50 50 51 51 51 52 51 50 47 43 45 47 45 43 44 44 45 45 44 43 41 39 39 38 38 37 37 36 34 33 32 32 31 29 27 28 27 25 25 27 25 24 25 25 26 27 27 29 33 37 40 41 45 47 47 49 50 48 42 38 38 43 44 38 34 32 29 26 24 20 15 14 14 14 15 17 19 20
57 57 57 58 59 59 57 56 55 55 54 53 54 54 55 55 53 51 48 46 47 47 47 48 47 47 48 48 47 45 44 42 40 41 41 40 40 38 37 36 35 34 32 32 33 31 30 29 27 26 24 23 24 25 25 25 26 27 29 34 39 41 43 45 45 47 48 47 44 41 43 48 46 40 35 31 28 26 26 22 16 14 14 13 15 18 20 21
58 58 58 59 61 61 60 59 58 57 58 57 57 57 57 56 55 54 52 50 49 50 50 52 51 50 50 49 49 48 46 44 41 41 44 44 42 39 38 37 36 34 33 34 34 32 33 31 25 25 25 24 25 25 25 27 28 27 27 33 38 38 41 43 45 46 47 49 47 45 48 49 45 41 36 31 30 28 28 27 22 18 16 16 18 19 19 20
60 59 60 61 62 62 62 61 60 59 59 59 60 60 58 57 57 57 56 54 54 53 52 52 53 53 52 51 51 50 49 47 43 42 45 46 45 42 40 39 37 35 35 35 34 33 35 30 23 26 30 28 26 25 26 29 30 28 29 33 32 31 36 42 44 44 46 51 49 47 49 48 44 42 38 34 33 31 30 31 29 23 20 20 21 19 17 17
63 61 62 63 63 63 63 62 62 61 60 60 61 60 59 59 59 59 59 58 57 56 54 53 54 55 55 54 54 54 53 51 48 47 47 47 48 45 42 40 39 37 35 35 36 36 37 33 27 28 31 28 26 26 29 30 30 31 32 30 28 28 33 39 43 44 46 50 50 46 47 47 44 43 39 36 35 31 28 28 28 25 24 24 21 18 16 14
66 64 64 64 65 66 65 64 64 63 63 62 62 61 60 60 59 60 60 61 60 60 59 57 56 56 57 57 57 56 57 56 54 52 50 50 51 47 44 43 42 39 35 34 38 38 38 38 33 31 31 28 27 30 33 34 33 33 31 29 29 31 33 37 42 44 45 48 48 45 45 46 44 43 39 35 34 29 24 25 28 28 27 24 19 15 14 14
69 67 66 66 66 67 67 66 66 65 65 65 63 62 62 61 60 61 61 62 63 63 64 63 61 59 58 59 59 58 59 60 58 57 55 54 53 49 46 45 43 41 37 35 38 39 38 41 38 34 32 31 32 36 39 37 35 33 33 33 33 34 34 35 37 40 41 44 44 41 42 43 42 41 39 36 33 26 22 25 29 29 23 18 14 11 12 14
72 70 68 68 67 68 68 68 68 68 67 66 65 64 64 63 62 63 63 63 64 65 66 66 65 63 62 62 61 60 61 62 61 60 60 57 55 51 48 47 45 44 40 37 38 39 40 43 41 36 34 36 40 42 40 37 35 36 36 37 36 35 36 36 37 38 39 41 40 38 39 37 36 38 38 37 33 25 20 24 29 27 21 17 15 12 13 15
74 71 70 69 69 69 69 69 70 70 69 68 67 66 66 65 65 64 65 66 66 66 67 67 67 67 65 64 63 62 62 63 64 63 62 60 57 54 50 45 42 42 42 41 41 41 42 44 42 38 39 42 43 41 39 37 36 36 36 36 35 35 35 37 39 39 40 41 39 36 35 32 31 34 35 36 33 25 21 24 28 27 24 21 18 14 15 15
76 73 70 71 71 70 69 69 70 71 70 68 68 68 66 66 67 67 68 69 70 70 70 71 70 70 69 67 65 65 64 65 66 66 65 62 60 57 52 44 37 35 40 45 44 40 40 43 44 44 43 43 41 39 39 38 37 36 36 35 34 35 36 37 39 39 38 39 38 36 35 29 25 27 29 31 30 27 25 25 27 28 26 24 20 16 17 18
77 74 71 70 71 72 71 69 68 70 70 69 69 69 68 68 69 70 71 72 73 74 74 73 73 73 74 72 69 69 69 68 68 69 68 65 61 58 56 53 47 42 40 42 41 36 37 43 48 47 44 41 40 40 41 40 39 38 39 37 36 37 36 36 36 35 36 38 37 38 38 28 18 20 25 28 29 29 29 28 28 29 28 26 22 19 19 20
74 71 68 67 69 70 69 68 68 69 70 70 71 71 71 71 72 74 75 75 76 76 76 76 76 77 78 77 74 72 73 73 71 70 69 69 66 63 61 61 60 56 49 44 39 33 36 44 48 48 47 46 45 45 46 46 44 43 42 39 38 37 36 36 36 36 37 39 38 40 41 31 19 17 23 31 34 33 32 31 30 31 30 26 23 20 19 20
69 64 60 62 65 65 64 65 67 67 68 69 71 72 72 73 74 75 76 78 78 79 80 80 81 81 81 80 79 76 76 76 75 74 73 72 71 69 66 64 63 61 57 54 50 43 41 44 47 50 54 54 52 51 50 49 47 45 45 42 40 39 38 38 39 41 42 42 39 40 42 35 25 20 22 31 37 36 34 34 33 32 32 28 23 21 21 22
60 57 52 52 57 59 58 58 61 63 64 66 67 68 69 71 73 74 76 78 79 80 81 83 84 84 83 83 82 81 79 78 78 79 77 74 72 70 68 66 63 61 57 54 53 54 52 50 52 54 56 55 52 49 47 47 47 46 46 44 42 40 39 40 42 44 44 41 40 41 40 36 31 26 23 26 34 37 34 33 34 34 33 30 25 22 22 23
48 46 42 40 42 46 47 48 51 55 58 61 63 64 65 68 71 72 73 75 77 78 80 82 85 86 85 84 84 84 82 80 81 81 80 77 74 72 70 68 64 62 59 54 51 53 55 57 59 58 56 54 50 45 43 44 47 46 45 45 43 39 39 42 45 46 43 41 42 40 37 37 34 30 26 24 26 34 33 30 31 32 33 33 30 27 28 27
34 33 31 28 27 30 33 37 40 44 48 53 56 58 60 62 65 67 68 70 73 75 78 79 81 85 87 86 85 86 84 82 82 83 82 79 75 73 71 70 67 63 61 59 55 54 56 59 61 61 58 55 51 46 44 44 46 47 46 45 45 41 40 42 43 42 41 42 41 37 35 37 35 31 30 25 21 31 36 31 26 26 29 33 34 33 32 29
25 23 22 20 18 19 22 27 31 35 38 42 47 50 53 56 58 61 63 65 66 68 71 73 75 81 87 87 86 85 84 83 82 84 84 81 78 75 71 70 69 66 63 62 60 58 59 59 59 59 58 54 51 49 47 46 48 49 48 47 46 44 43 42 39 37 37 37 35 33 34 37 36 32 31 28 23 29 38 37 30 27 27 29 32 32 28 25
19 17 16 15 14 14 16 21 25 29 30 34 38 41 44 47 50 53 56 58 59 60 63 67 71 75 82 85 85 84 84 84 83 84 85 83 81 79 74 71 70 68 65 65 63 61 62 61 58 57 56 53 51 49 48 48 50 51 49 48 48 46 44 43 40 37 36 35 33 34 36 37 35 33 32 32 30 28 34 39 38 35 31 30 31 29 25 26
15 14 14 13 11 12 14 17 21 24 26 30 35 36 36 39 41 44 47 50 53 53 54 59 63 67 72 77 79 79 80 83 84 84 86 86 84 83 79 74 72 71 68 67 66 65 64 63 59 56 55 53 49 46 47 48 50 53 52 50 50 48 46 44 42 38 34 33 34 37 39 36 32 31 33 36 35 32 32 37 42 41 37 36 34 29 29 33
14 13 14 12 10 12 14 15 16 19 23 27 31 32 33 36 38 38 39 41 45 48 50 51 54 59 64 67 69 71 74 79 83 84 87 88 86 86 84 78 73 73 71 70 70 69 66 64 60 57 56 54 49 44 42 43 47 55 59 54 49 47 46 44 39 34 30 28 29 33 35 32 29 31 34 37 37 36 34 35 40 43 41 38 36 34 36 40
Wind_Direction
315 316 318 317 314 312 311 312 314 318 322 324 326 321 313 304 296 293 290 290 291 292 286 270 258 251 249 248 246 242 235 223 225 232 227 219 221 223 217 219 225 224 218 203 191 196 202 201 192 183 180 177 173 168 171 164 153 169 194 188 158 127 91 29 358 17 351 330 352 4 352 0 13 25 30 16 7 4 346 341 291 277 289 303 291 281 277 257
310 314 317 317 316 314 312 310 309 309 311 316 322 325 324 318 310 300 291 286 282 282 284 283 271 256 250 249 248 244 239 227 224 234 216 184 214 219 217 215 217 220 216 208 200 198 204 206 200 193 187 182 171 167 181 179 155 156 175 165 134 92 69 41 2 342 356 332 337 359 338 338 3 22 21 10 12 16 326 298 316 333 315 294 284 286 281 270
309 311 311 312 313 314 314 313 311 308 306 307 310 316 320 323 322 315 306 296 285 279 276 275 276 266 255 249 248 246 242 234 229 234 210 190 213 218 219 215 211 216 213 212 209 203 205 204 200 201 195 184 173 172 181 172 149 148 160 154 119 79 70 52 14 346 340 335 335 346 339 335 358 20 7 9 18 352 270 287 325 354 316 303 290 304 298 272
311 311 310 310 309 309 309 310 311 309 308 305 305 306 309 315 320 323 321 313 302 289 280 272 268 267 260 252 249 246 244 240 233 232 219 202 214 220 222 220 213 214 211 209 211 209 210 203 196 203 200 191 183 178 175 160 155 168 167 144 112 73 58 51 17 354 330 326 334 341 347 335 339 3 5 12 7 283 257 282 329 345 317 308 305 320 318 281
310 310 309 308 306 305 304 305 307 307 307 305 305 303 302 305 307 315 320 322 320 309 297 285 272 263 260 252 250 246 244 243 237 232 226 212 218 225 226 226 220 217 212 208 210 213 215 208 201 203 202 197 188 179 176 166 176 201 203 156 115 69 42 36 19 3 340 325 333 337 338 325 325 353 19 17 351 276 256 334 340 338 335 332 323 335 330 304
305 305 305 304 303 302 302 301 301 302 303 303 303 302 301 300 299 302 307 314 320 319 316 306 292 271 258 250 246 245 243 243 240 236 232 222 220 227 229 230 227 221 216 211 212 213 213 212 207 205 206 205 196 187 184 177 194 221 225 193 127 77 37 16 24 11 345 333 336 334 334 326 322 340 23 44 6 322 3 12 346 336 344 352 327 338 336 320
299 300 302 301 301 301 301 301 300 298 298 299 299 300 300 299 298 297 298 301 305 312 317 318 314 296 269 251 241 242 245 245 241 234 231 226 220 224 228 231 231 225 218 213 215 215 213 212 208 208 211 210 207 205 196 187 212 229 224 204 120 74 35 2 23 12 340 332 338 329 324 327 325 332 4 46 22 335 351 1 344 330 344 359 330 327 332 325
291 294 296 298 299 300 301 302 302 300 297 295 295 296 298 299 299 298 297 296 296 299 302 311 315 308 294 268 247 243 247 246 242 235 231 229 224 222 224 229 231 226 220 215 215 217 215 208 205 211 212 211 215 218 208 204 218 222 214 199 109 67 29 348 360 359 330 324 331 321 307 316 327 329 344 22 18 340 342 342 334 337 348 1 4 321 322 337
285 287 289 291 293 295 298 301 301 302 299 295 294 293 294 296 297 298 298 298 296 295 295 298 299 301 297 283 273 255 246 244 245 242 236 232 231 226 224 228 230 227 223 220 217 219 218 208 205 211 210 213 217 216 215 221 229 226 214 200 140 107 93 308 323 333 320 314 319 317 306 307 317 321 339 4 3 334 331 330 333 354 359 357 360 320 324 349
284 284 285 286 287 290 293 296 298 300 299 298 295 293 292 292 293 295 296 298 298 296 295 296 294 292 288 284 287 276 253 247 249 249 243 236 232 229 227 229 230 230 227 225 225 223 222 213 209 210 208 213 216 213 212 220 235 239 233 220 180 173 182 216 274 297 300 301 306 310 307 305 308 316 347 360 355 325 320 327 339 358 1 349 348 326 330 7
284 284 283 283 284 285 286 289 292 295 296 296 296 295 293 291 291 292 293 294 295 295 295 296 295 291 287 285 286 285 269 253 250 251 251 245 236 231 230 231 230 231 230 228 229 223 218 215 213 213 210 213 216 216 211 214 228 240 251 249 211 191 186 199 223 259 276 288 297 301 303 304 304 314 350 359 354 323 312 327 344 353 351 337 337 322 313 26
284 284 283 282 281 281 281 282 284 287 289 290 291 293 291 290 291 289 288 290 292 290 290 292 293 291 288 288 287 284 277 260 259 257 253 249 242 235 230 231 232 232 230 228 227 223 217 216 218 216 213 215 219 219 211 212 224 235 252 251 216 190 188 206 208 228 257 277 288 291 298 299 300 309 333 352 357 328 306 320 340 341 338 329 326 311 284 273
284 284 284 283 282 281 280 279 279 280 281 281 283 285 284 285 286 285 286 287 287 285 285 287 288 290 287 287 289 284 284 262 258 262 261 256 248 241 234 231 233 233 231 229 226 224 221 221 223 220 215 215 220 224 218 215 220 227 240 236 214 189 181 202 213 218 247 264 273 283 290 287 290 301 317 336 355 344 308 314 331 332 330 323 318 305 285 250
286 284 284 283 282 281 280 279 278 277 277 276 276 277 277 278 280 281 282 282 282 280 282 283 286 288 282 282 284 283 285 261 248 255 264 265 253 246 241 234 232 233 231 230 228 227 225 225 226 222 218 217 217 222 225 224 223 223 225 221 214 193 180 196 200 196 227 248 261 276 284 280 285 292 300 310 315 328 302 304 318 324 323 317 310 300 289 275
286 285 285 284 283 281 280 279 278 277 276 275 274 273 272 273 277 277 276 276 276 277 279 279 279 277 276 282 286 276 271 260 251 249 252 259 257 248 243 239 234 232 232 231 231 230 229 229 230 228 225 221 217 219 222 226 230 229 223 221 218 195 186 199 196 184 206 235 251 266 279 283 288 290 296 301 292 278 273 281 295 306 315 308 297 288 282 290
284 283 283 284 284 283 281 280 279 277 275 274 274 272 270 272 274 272 271 272 273 272 271 271 272 269 273 282 282 266 261 261 258 249 243 246 255 253 249 248 239 234 234 234 233 232 232 232 233 234 231 225 221 221 220 220 228 230 227 231 213 180 177 194 196 188 203 228 243 253 269 281 291 295 299 301 291 272 249 255 274 285 298 295 289 277 262 275
282 281 280 280 281 281 281 280 280 279 277 275 274 273 273 272 271 270 268 269 270 268 265 266 268 268 271 276 277 268 263 265 263 251 241 236 243 250 249 250 246 238 235 235 236 235 235 234 232 233 232 231 228 224 223 221 224 227 227 226 204 185 177 179 184 193 210 228 241 251 266 284 300 301 298 304 307 287 248 242 260 272 284 283 285 271 242 243
282 281 280 279 278 277 278 278 278 278 277 275 274 274 275 273 271 270 269 269 268 266 265 265 263 264 265 267 269 268 266 268 268 260 250 242 240 243 243 245 246 245 240 239 240 239 239 237 233 231 231 234 232 232 234 227 223 228 225 213 209 208 194 176 172 182 207 232 250 264 276 292 305 302 297 303 310 298 271 255 258 266 277 276 276 267 242 233
281 282 281 280 278 277 276 275 275 275 276 276 275 274 276 276 272 270 271 271 269 266 266 265 262 261 262 261 259 264 267 264 265 266 263 256 248 244 243 244 246 248 248 246 244 243 243 241 237 234 234 238 238 241 244 228 220 226 221 211 211 210 198 185 178 177 196 227 249 269 282 291 299 300 296 302 307 300 285 280 268 258 263 270 265 256 244 234
278 279 280 280 279 277 275 275 274 273 273 274 274 274 275 276 274 271 269 268 267 266 266 266 262 261 264 261 255 257 259 255 258 264 266 264 257 250 247 247 246 247 251 252 249 247 246 246 244 240 239 241 240 242 239 222 217 221 219 211 207 208 206 198 185 181 204 229 247 268 282 289 296 296 290 294 301 297 286 286 277 250 251 264 264 249 237 231
274 275 276 278 278 276 274 274 274 273 272 272 273 275 275 273 270 268 264 264 267 265 266 267 263 261 263 262 258 255 255 256 260 264 265 264 262 256 250 249 248 246 248 248 246 246 247 250 250 242 237 237 236 234 231 220 216 219 219 212 208 211 206 192 174 177 209 237 255 270 279 285 292 290 282 282 287 293 290 276 262 245 241 252 260 249 235 226
272 272 272 274 275 275 273 272 272 271 271 271 272 274 274 271 267 264 262 264 271 268 265 267 264 257 259 265 266 257 254 255 256 258 259 259 262 260 253 250 248 244 242 243 245 249 253 258 254 241 235 233 230 229 227 220 214 216 217 213 208 201 192 182 171 176 199 226 245 257 268 279 287 286 279 277 283 299 300 274 260 254 239 241 251 249 238 221
272 271 271 270 271 273 272 271 270 270 269 270 272 272 270 268 267 267 264 262 268 270 267 264 263 259 258 263 263 255 253 255 253 254 256 257 260 259 256 252 246 242 243 246 250 252 256 262 254 241 235 232 229 227 225 221 215 213 214 212 200 190 192 182 171 179 198 218 237 248 264 277 281 281 278 279 289 303 307 291 278 270 242 230 238 245 243 228
272 271 270 269 269 270 271 270 269 268 268 268 270 270 269 268 267 268 267 262 259 266 269 264 259 260 256 254 257 261 265 261 256 253 254 256 257 256 257 255 249 245 246 246 246 248 249 249 244 240 235 232 231 228 226 223 218 214 213 211 195 189 199 187 173 186 199 208 225 237 256 269 270 273 278 284 291 299 305 297 284 275 251 228 232 242 243 239
273 271 270 269 267 268 269 269 268 267 267 267 268 267 267 268 267 266 266 264 257 259 267 265 260 256 255 256 261 266 263 258 256 252 250 251 253 256 257 255 252 249 245 243 243 243 242 240 240 242 238 233 231 229 228 226 222 217 214 212 195 188 197 193 182 193 198 202 217 230 245 259 265 270 277 282 287 293 295 291 287 278 261 233 229 234 234 239
272 271 271 269 267 267 268 268 267 266 265 265 266 266 265 265 266 266 266 265 260 255 260 264 264 258 256 259 260 259 259 258 255 253 254 254 255 257 257 256 254 248 244 243 242 240 238 238 239 242 242 237 233 230 229 227 225 220 214 211 199 190 197 199 188 195 200 197 213 234 246 254 261 265 271 277 283 289 285 286 295 288 271 245 226 227 229 235
272 271 270 269 268 267 267 268 267 265 265 265 264 264 264 264 265 266 267 265 261 256 256 259 262 260 257 257 256 257 260 260 257 258 260 257 254 253 254 255 253 247 246 247 246 241 236 235 236 239 244 244 239 234 229 228 228 220 209 211 205 195 199 199 190 197 204 196 208 237 247 248 255 261 269 275 280 282 278 285 308 300 281 258 232 228 228 230
272 271 270 269 268 266 266 266 266 266 265 264 263 262 262 263 263 264 265 264 262 259 257 257 257 257 256 256 257 257 258 259 262 262 257 252 250 250 253 255 254 247 246 248 245 235 233 233 234 237 240 244 246 241 232 231 231 217 205 212 208 200 198 194 193 199 205 205 209 224 237 243 252 260 266 269 271 272 271 288 310 301 283 265 247 245 238 230
272 271 269 269 268 266 265 264 265 266 265 264 263 262 262 262 262 262 261 261 261 259 258 256 256 256 253 253 254 255 256 259 262 261 256 254 252 252 252 253 251 246 247 250 243 233 237 235 232 233 234 237 242 241 234 236 234 215 207 213 206 201 197 191 196 201 205 214 214 215 228 241 249 255 258 259 261 264 272 290 300 292 283 270 253 254 249 240
271 271 269 268 267 267 266 263 262 264 266 265 263 262 262 261 261 261 259 258 260 259 257 256 255 254 252 251 250 251 253 255 256 257 257 256 253 250 246 244 246 247 248 252 247 239 240 236 234 235 234 233 234 234 232 235 233 216 210 213 205 200 197 195 200 203 209 217 217 213 223 237 244 246 249 251 252 260 274 284 285 284 284 277 260 254 251 246
273 272 271 269 267 267 267 265 261 260 263 264 264 262 261 260 260 258 257 259 261 259 256 254 252 249 248 248 247 247 249 250 254 257 259 258 256 253 248 244 248 250 251 254 256 250 244 241 242 243 239 233 230 230 229 230 229 217 212 214 209 203 201 201 203 203 210 218 218 213 216 229 237 239 241 246 250 257 269 272 271 273 278 279 267 255 250 245
275 274 273 271 269 268 267 266 263 260 259 261 262 262 260 259 258 257 258 260 260 258 256 253 251 249 247 246 246 246 248 249 253 256 258 258 257 255 254 252 251 252 253 256 258 252 246 245 245 242 238 236 235 234 230 229 228 221 214 214 214 209 206 208 207 207 213 219 220 214 212 224 236 240 239 243 249 254 260 260 256 259 267 273 267 254 248 243
275 274 274 272 271 270 268 267 265 263 260 259 259 260 259 258 257 258 259 258 257 257 257 255 252 251 249 247 246 246 248 249 250 252 254 254 254 253 253 252 249 248 250 250 247 243 240 238 238 238 237 237 236 235 233 232 233 230 223 219 220 216 213 215 215 213 217 222 222 217 215 224 235 241 241 241 247 252 253 250 252 262 267 271 273 263 250 243
272 272 271 270 270 270 269 267 266 265 263 260 259 258 257 257 258 259 258 256 254 254 255 254 253 251 250 249 248 248 248 249 250 251 252 251 252 252 252 252 251 249 249 248 247 244 242 240 239 241 244 244 242 240 239 238 237 236 229 224 226 226 223 222 221 219 220 223 222 218 219 225 231 238 242 242 248 254 255 256 260 265 265 269 275 269 257 247
269 269 268 267 267 268 268 266 264 263 262 261 259 258 257 257 258 258 257 254 251 250 251 252 252 251 250 251 251 250 249 250 249 250 251 251 250 250 250 251 252 250 249 249 250 250 249 247 243 244 243 240 241 241 240 240 238 236 229 225 230 231 227 225 223 222 221 222 223 222 224 228 231 237 241 241 245 251 257 262 259 254 257 262 265 266 264 255
269 268 267 266 265 265 265 264 262 261 259 259 258 258 258 257 257 256 255 254 251 249 248 249 250 250 250 250 250 250 249 248 246 245 248 250 249 247 246 247 248 248 247 248 249 250 251 248 240 242 243 237 236 236 236 239 240 237 232 232 236 234 229 228 227 225 223 224 228 228 229 232 233 236 238 236 239 244 252 257 252 245 249 253 254 260 268 267
269 269 268 267 265 264 263 262 261 259 257 256 256 257 256 255 254 254 254 253 252 250 247 244 245 247 248 247 248 248 247 246 244 243 243 246 247 245 244 245 245 246 246 245 246 246 248 246 236 235 242 241 236 233 233 236 237 237 236 236 237 232 228 230 230 229 227 230 234 234 233 235 234 235 237 236 237 241 249 249 241 239 247 252 253 259 267 271
269 269 269 267 266 264 263 262 261 259 257 256 255 254 253 252 251 251 250 250 249 249 247 243 240 241 243 245 245 246 246 245 243 242 240 241 243 244 243 243 243 244 244 243 244 244 244 245 238 231 235 237 233 230 230 231 232 235 238 237 235 233 230 230 231 231 230 234 238 238 236 236 236 237 238 236 233 236 245 243 236 239 249 256 260 266 274 271
270 270 270 268 267 265 264 262 261 259 258 257 255 253 251 249 248 246 246 246 246 246 246 245 240 236 236 239 241 242 244 244 243 242 240 238 239 239 240 242 242 242 241 239 241 243 243 245 241 232 230 230 230 230 229 228 229 230 231 231 231 233 236 236 239 241 238 237 241 243 241 239 239 239 238 237 233 231 239 240 238 245 253 258 264 273 282 279
273 272 272 270 267 266 265 263 261 259 258 257 255 253 250 248 246 244 243 242 243 243 244 244 243 239 234 233 235 237 239 241 242 243 243 242 240 237 237 239 241 241 241 240 240 240 240 242 240 234 229 228 231 234 235 233 231 230 230 232 231 231 233 235 240 244 243 242 242 244 246 246 244 240 237 238 238 231 233 236 239 249 255 252 259 267 274 282
275 274 273 271 269 268 266 264 262 260 258 256 254 252 250 248 245 243 241 240 239 239 240 240 241 240 236 232 229 230 233 237 239 241 242 242 242 240 236 237 240 243 242 240 237 237 238 241 240 235 231 231 232 236 239 239 236 234 234 237 239 237 235 236 239 240 241 243 243 242 247 249 247 242 235 235 236 229 226 230 234 244 250 250 256 260 260 271
277 276 274 272 270 269 266 263 262 260 258 256 253 251 249 247 245 242 240 238 237 236 236 236 236 236 235 232 227 224 225 230 235 237 239 239 240 240 236 232 233 238 241 241 239 238 238 240 241 236 232 234 235 234 235 236 237 236 233 233 237 240 239 238 241 243 244 248 248 245 249 251 248 245 235 229 228 222 220 225 229 235 243 248 253 250 247 255
279 277 275 273 271 269 266 263 260 258 257 255 252 249 247 244 243 241 239 236 236 235 234 234 234 233 233 231 227 223 222 225 229 233 235 235 235 235 232 230 229 229 231 238 242 241 236 234 236 237 233 231 233 233 232 229 227 229 230 226 227 234 239 239 242 246 248 251 251 249 252 254 249 245 231 217 213 214 217 225 230 233 238 246 250 246 242 247
280 279 276 273 271 269 265 261 257 255 254 253 250 248 246 243 240 239 237 235 234 234 233 232 231 231 231 231 228 224 221 220 222 225 229 231 231 230 230 232 234 231 225 226 232 237 237 233 231 233 231 226 223 226 228 226 223 226 231 228 224 227 232 235 237 239 241 244 246 249 255 258 252 243 228 214 210 210 215 223 232 235 238 245 250 249 248 250
282 279 276 272 270 267 262 258 256 253 252 251 249 248 246 242 238 236 236 235 233 231 231 230 229 229 229 229 228 225 221 218 218 221 224 226 228 228 228 230 232 231 226 223 224 225 230 234 231 229 230 228 224 224 227 230 230 232 234 231 224 221 225 231 234 234 237 240 242 248 257 260 255 245 230 219 214 209 211 221 229 234 237 241 246 247 250 250
285 280 275 271 268 264 258 255 253 251 249 248 246 245 243 241 239 236 234 233 233 231 230 229 228 228 228 227 227 225 222 219 218 219 220 221 223 223 225 226 225 226 223 219 220 222 225 229 231 229 229 231 230 229 229 232 234 235 236 235 229 221 222 229 234 237 240 242 244 250 256 260 258 251 239 229 219 211 212 222 227 230 234 236 237 239 244 247
287 282 276 270 266 262 257 253 250 248 246 245 243 241 240 238 238 236 234 232 232 232 232 230 229 228 227 226 225 225 223 220 217 217 217 217 218 219 221 221 220 221 219 213 214 221 224 227 230 231 229 229 228 226 226 229 234 236 238 240 239 231 225 227 234 239 242 243 246 249 252 255 259 255 248 244 226 210 211 221 226 227 232 233 229 225 229 234
288 282 277 271 264 258 254 250 247 244 243 243 242 240 238 237 236 235 234 233 232 232 232 232 231 230 227 225 224 224 223 221 217 217 216 214 213 214 215 216 216 217 216 212 211 216 222 227 231 232 232 229 225 222 219 222 229 234 236 239 241 239 234 233 235 239 243 245 248 249 249 252 257 252 246 246 226 204 208 217 221 223 229 232 230 227 227 231
289 282 277 273 265 253 246 244 244 241 240 240 241 240 238 237 236 235 234 233 233 234 234 233 232 231 229 226 225 223 222 221 217 216 215 212 209 209 209 210 212 213 211 209 210 213 219 225 229 230 232 231 227 221 216 214 219 226 231 235 237 238 238 239 240 239 240 244 247 246 245 246 249 248 244 240 227 206 206 212 217 222 227 231 234 234 235 242
292 284 278 274 266 253 241 238 240 241 241 241 240 239 240 239 237 236 236 235 233 234 236 236 234 233 231 228 227 224 222 220 217 214 213 210 207 206 205 204 206 209 208 208 209 213 217 222 225 226 228 230 229 224 217 212 212 217 224 230 233 234 235 238 240 240 239 240 241 241 242 242 242 243 241 238 234 224 213 210 213 220 224 230 237 235 234 241
296 285 278 271 262 255 246 238 238 237 237 240 240 238 238 240 240 238 237 236 234 233 235 238 238 236 234 232 230 227 223 221 217 213 211 209 206 205 204 202 202 204 205 206 208 212 216 219 221 224 225 226 227 226 220 214 211 211 217 224 228 229 230 232 237 240 241 243 243 241 241 241 237 236 239 238 235 232 226 214 211 216 221 229 236 233 230 234
298 286 280 274 263 258 255 248 246 240 235 238 241 239 237 238 239 241 240 237 236 236 235 237 239 239 237 235 234 233 229 223 218 213 211 209 206 204 204 202 200 201 203 204 207 211 214 215 217 221 223 223 223 224 223 220 216 213 214 216 220 224 226 226 230 236 242 249 250 244 241 239 234 232 237 238 231 224 223 219 214 216 222 227 231 232 233 237
Height
5903 5902 5901 5901 5900 5900 5899 5898 5897 5897 5896 5895 5894 5894 5893 5893 5893 5892 5892 5891 5891 5891 5891 5891 5891 5891 5891 5892 5892 5893 5894 5895 5894 5894 5894 5895 5896 5896 5896 5897 5898 5899 5900 5902 5904 5904 5905 5905 5906 5907 5906 5907 5907 5907 5907 5908 5909 5910 5911 5912 5912 5912 5911 5911 5911 5911 5911 5910 5909 5908 5908 5908 5909 5911 5912 5912 5912 5912 5912 5912 5912 5912 5913 5913 5914 5914 5914 5915
5902 5901 5900 5900 5899 5898 5898 5897 5896 5896 5895 5894 5893 5893 5892 5892 5891 5891 5891 5890 5890 5890 5890 5889 5889 5890 5890 5890 5891 5891 5892 5893 5893 5893 5893 5894 5894 5894 5895 5896 5897 5898 5899 5901 5902 5903 5904 5904 5905 5906 5906 5906 5907 5907 5907 5908 5909 5911 5911 5911 5911 5911 5911 5912 5912 5912 5911 5910 5909 5909 5908 5908 5909 5910 5912 5912 5912 5912 5911 5911 5911 5912 5912 5912 5913 5913 5914 5914
5901 5900 5899 5899 5898 5897 5897 5896 5895 5895 5894 5893 5893 5892 5891 5891 5890 5890 5890 5890 5889 5889 5889 5889 5888 5888 5889 5889 5889 5890 5890 5891 5892 5892 5892 5893 5893 5893 5893 5894 5896 5896 5898 5899 5900 5902 5902 5903 5904 5905 5906 5906 5906 5907 5907 5909 5910 5911 5911 5910 5910 5909 5910 5911 5913 5913 5912 5911 5910 5910 5909 5909 5909 5911 5912 5912 5912 5912 5911 5911 5911 5911 5912 5912 5912 5913 5913 5913
5900 5899 5898 5898 5897 5896 5895 5895 5894 5894 5893 5892 5892 5891 5890 5890 5889 5889 5889 5888 5888 5888 5888 5888 5888 5888 5887 5887 5887 5888 5888 5889 5890 5890 5891 5891 5891 5891 5892 5893 5894 5895 5896 5897 5898 5900 5900 5902 5903 5904 5905 5906 5906 5907 5908 5909 5911 5910 5909 5909 5908 5908 5909 5910 5912 5913 5913 5911 5910 5909 5909 5908 5909 5911 5912 5912 5912 5912 5911 5911 5911 5911 5911 5912 5912 5912 5912 5912
5899 5898 5898 5897 5896 5895 5894 5894 5893 5892 5892 5891 5891 5890 5889 5889 5889 5888 5888 5888 5887 5887 5887 5887 5887 5887 5887 5886 5886 5886 5886 5886 5887 5889 5889 5890 5890 5890 5891 5892 5893 5893 5894 5895 5897 5898 5899 5901 5902 5903 5905 5906 5907 5907 5907 5908 5910 5910 5909 5908 5906 5907 5907 5909 5911 5912 5912 5912 5911 5909 5909 5908 5908 5910 5911 5912 5912 5911 5911 5911 5910 5911 5911 5911 5911 5911 5911 5912
5898 5897 5897 5896 5895 5894 5894 5893 5892 5891 5891 5890 5890 5889 5888 5888 5888 5887 5887 5887 5886 5886 5886 5886 5886 5886 5886 5886 5885 5885 5884 5884 5885 5887 5888 5889 5888 5888 5889 5890 5891 5892 5892 5894 5895 5896 5898 5899 5901 5902 5904 5905 5906 5907 5907 5907 5909 5911 5910 5908 5905 5905 5907 5908 5910 5912 5912 5912 5911 5909 5908 5908 5907 5908 5910 5912 5912 5911 5910 5910 5910 5910 5910 5910 5910 5911 5911 5911
5897 5896 5896 5895 5894 5893 5893 5892 5891 5891 5890 5889 5889 5888 5888 5887 5887 5886 5886 5886 5885 5885 5885 5885 5885 5885 5885 5885 5884 5884 5883 5883 5883 5884 5885 5886 5887 5887 5887 5888 5889 5890 5891 5892 5893 5894 5896 5897 5900 5901 5902 5904 5905 5906 5907 5907 5910 5911 5909 5907 5904 5904 5906 5907 5909 5912 5912 5912 5912 5910 5909 5909 5907 5907 5909 5912 5912 5909 5908 5909 5910 5910 5909 5910 5910 5911 5911 5911
5895 5895 5894 5894 5893 5892 5892 5891 5890 5890 5889 5888 5888 5887 5887 5886 5886 5885 5885 5885 5884 5884 5884 5884 5884 5884 5884 5884 5883 5883 5883 5882 5881 5881 5883 5884 5885 5885 5885 5886 5887 5889 5890 5890 5891 5892 5893 5895 5898 5899 5901 5903 5904 5905 5906 5906 5907 5907 5906 5904 5903 5903 5906 5907 5908 5911 5912 5911 5911 5911 5910 5909 5908 5908 5908 5910 5910 5909 5908 5908 5910 5910 5909 5909 5909 5910 5910 5910
5893 5893 5892 5892 5891 5891 5890 5890 5889 5888 5888 5887 5886 5886 5885 5885 5885 5884 5884 5884 5883 5883 5883 5883 5883 5883 5883 5882 5882 5882 5882 5881 5880 5880 5882 5883 5884 5884 5884 5885 5886 5887 5888 5889 5889 5890 5891 5894 5896 5898 5900 5901 5901 5902 5904 5904 5904 5904 5903 5902 5901 5901 5904 5906 5907 5909 5911 5911 5911 5911 5910 5909 5908 5909 5908 5909 5909 5908 5908 5908 5909 5909 5908 5908 5908 5909 5909 5910
5891 5890 5890 5890 5889 5889 5888 5888 5887 5887 5886 5886 5885 5885 5884 5884 5883 5883 5883 5883 5882 5882 5882 5882 5882 5882 5881 5881 5881 5881 5881 5881 5880 5879 5880 5881 5882 5883 5883 5884 5884 5885 5886 5887 5888 5889 5891 5893 5894 5895 5896 5897 5897 5900 5902 5903 5903 5903 5902 5900 5899 5899 5901 5904 5906 5908 5910 5910 5910 5910 5909 5908 5907 5909 5909 5909 5909 5908 5908 5908 5908 5907 5907 5907 5908 5908 5909 5909
5889 5888 5888 5887 5887 5887 5886 5886 5885 5885 5885 5884 5883 5883 5883 5882 5882 5881 5881 5881 5881 5881 5881 5881 5881 5880 5880 5880 5880 5880 5880 5880 5879 5879 5879 5880 5881 5882 5882 5883 5883 5884 5885 5886 5887 5888 5889 5890 5891 5891 5892 5894 5896 5898 5900 5901 5902 5902 5901 5900 5898 5898 5900 5902 5904 5907 5907 5908 5909 5909 5909 5907 5906 5908 5909 5910 5910 5909 5908 5908 5907 5906 5907 5907 5907 5908 5909 5909
5887 5886 5886 5885 5885 5884 5884 5884 5883 5883 5883 5882 5882 5881 5881 5881 5880 5880 5879 5879 5879 5879 5879 5879 5879 5879 5879 5879 5879 5879 5879 5879 5878 5878 5878 5878 5879 5880 5881 5881 5882 5882 5883 5885 5886 5886 5887 5887 5887 5887 5891 5893 5894 5895 5897 5899 5899 5900 5900 5899 5898 5898 5900 5901 5903 5906 5906 5907 5909 5908 5908 5907 5905 5907 5909 5910 5911 5911 5909 5908 5907 5906 5907 5907 5907 5908 5908 5909
5885 5884 5884 5883 5883 5882 5882 5881 5881 5881 5880 5880 5880 5879 5879 5879 5879 5878 5877 5877 5878 5877 5877 5878 5878 5878 5877 5877 5877 5877 5878 5878 5877 5876 5876 5877 5877 5878 5878 5879 5880 5881 5882 5883 5884 5884 5885 5885 5884 5887 5890 5891 5892 5893 5895 5896 5896 5898 5898 5898 5898 5897 5898 5901 5903 5906 5906 5907 5907 5907 5908 5907 5905 5906 5908 5910 5911 5912 5911 5909 5907 5907 5907 5907 5907 5907 5908 5908
5883 5882 5882 5881 5881 5880 5880 5879 5879 5878 5878 5877 5877 5877 5877 5877 5877 5876 5876 5876 5876 5875 5876 5876 5877 5877 5875 5875 5876 5876 5876 5877 5876 5875 5875 5875 5876 5876 5876 5877 5878 5879 5880 5880 5881 5882 5883 5883 5883 5885 5886 5887 5890 5892 5894 5894 5894 5896 5896 5897 5897 5897 5898 5901 5903 5904 5905 5906 5906 5907 5908 5906 5905 5906 5908 5909 5910 5911 5911 5910 5908 5907 5907 5907 5907 5907 5907 5908
5880 5880 5879 5879 5878 5878 5877 5877 5876 5876 5875 5875 5875 5874 5874 5874 5875 5874 5874 5874 5874 5873 5874 5874 5875 5875 5873 5873 5874 5874 5874 5874 5874 5874 5874 5874 5874 5875 5875 5875 5876 5877 5878 5878 5879 5880 5880 5881 5881 5883 5884 5886 5888 5889 5891 5893 5893 5894 5895 5897 5897 5898 5899 5901 5902 5903 5904 5906 5906 5907 5907 5905 5904 5905 5906 5907 5909 5910 5911 5911 5909 5908 5907 5907 5907 5907 5907 5907
5877 5877 5876 5876 5876 5875 5875 5875 5874 5874 5873 5872 5872 5872 5871 5873 5872 5872 5871 5871 5871 5871 5871 5872 5873 5873 5871 5871 5872 5872 5871 5871 5872 5873 5873 5873 5872 5872 5873 5873 5874 5875 5875 5876 5876 5877 5878 5879 5880 5881 5882 5884 5885 5886 5889 5890 5891 5893 5895 5897 5898 5898 5900 5901 5902 5903 5904 5905 5905 5906 5906 5904 5903 5904 5905 5906 5907 5909 5910 5911 5910 5908 5908 5907 5908 5908 5908 5907
5874 5874 5873 5873 5873 5872 5872 5872 5871 5871 5870 5870 5870 5869 5869 5870 5870 5869 5869 5869 5869 5869 5869 5870 5871 5871 5869 5869 5869 5869 5869 5869 5869 5870 5870 5871 5871 5871 5871 5872 5872 5872 5873 5873 5874 5874 5875 5877 5878 5880 5880 5881 5883 5884 5885 5886 5889 5891 5894 5896 5897 5898 5899 5900 5902 5904 5904 5903 5903 5904 5905 5903 5902 5902 5904 5905 5907 5908 5910 5911 5910 5909 5908 5908 5908 5908 5908 5908
5871 5870 5870 5870 5869 5869 5869 5868 5868 5868 5867 5866 5867 5866 5866 5867 5867 5866 5867 5867 5867 5866 5866 5868 5869 5869 5868 5867 5866 5866 5867 5867 5867 5867 5868 5868 5869 5869 5870 5870 5870 5870 5871 5871 5871 5872 5872 5874 5876 5877 5878 5879 5880 5881 5882 5885 5889 5891 5893 5896 5898 5898 5897 5899 5901 5902 5903 5902 5902 5903 5903 5902 5901 5901 5903 5904 5907 5908 5909 5910 5910 5908 5908 5908 5907 5907 5907 5908
5867 5866 5866 5865 5865 5865 5865 5865 5865 5865 5864 5863 5863 5864 5864 5864 5864 5864 5865 5865 5864 5864 5864 5865 5867 5866 5865 5865 5864 5863 5864 5865 5864 5865 5866 5866 5867 5867 5867 5867 5867 5868 5868 5869 5870 5870 5870 5871 5872 5875 5877 5878 5879 5880 5882 5886 5888 5889 5892 5894 5896 5897 5897 5898 5899 5900 5901 5902 5902 5902 5903 5902 5901 5901 5902 5904 5906 5907 5909 5910 5910 5908 5907 5907 5907 5907 5907 5907
5863 5863 5862 5861 5861 5861 5862 5862 5861 5861 5861 5860 5860 5860 5861 5861 5860 5860 5861 5861 5861 5861 5861 5862 5864 5864 5863 5861 5861 5861 5862 5862 5862 5863 5863 5864 5864 5864 5865 5865 5865 5866 5867 5867 5868 5868 5868 5868 5870 5874 5876 5877 5878 5879 5881 5884 5885 5886 5888 5890 5893 5895 5896 5897 5898 5899 5900 5901 5901 5902 5903 5902 5901 5900 5902 5903 5905 5906 5907 5909 5909 5908 5907 5907 5907 5907 5907 5907
5859 5859 5859 5858 5857 5856 5857 5858 5857 5857 5857 5857 5857 5857 5857 5857 5856 5856 5857 5858 5858 5858 5858 5859 5861 5863 5861 5857 5858 5859 5859 5860 5860 5860 5860 5861 5861 5862 5862 5862 5863 5865 5865 5865 5865 5866 5865 5866 5869 5873 5874 5875 5876 5877 5878 5880 5881 5883 5885 5887 5890 5892 5894 5895 5894 5896 5898 5900 5901 5902 5903 5902 5900 5900 5901 5902 5904 5905 5906 5907 5907 5907 5907 5906 5906 5907 5907 5907
5855 5855 5855 5854 5852 5851 5852 5853 5853 5853 5853 5853 5854 5853 5853 5852 5851 5852 5853 5856 5856 5854 5855 5856 5857 5860 5858 5855 5855 5856 5857 5858 5859 5858 5858 5857 5858 5859 5860 5860 5861 5862 5862 5862 5863 5863 5864 5865 5868 5870 5871 5872 5873 5874 5875 5877 5878 5880 5882 5884 5887 5890 5892 5892 5890 5892 5895 5898 5899 5901 5902 5901 5901 5900 5899 5900 5902 5903 5903 5904 5906 5907 5907 5906 5906 5906 5906 5906
5849 5849 5850 5849 5848 5846 5846 5848 5848 5848 5849 5849 5850 5849 5848 5847 5847 5848 5849 5852 5853 5850 5851 5853 5853 5856 5856 5853 5851 5851 5855 5856 5856 5856 5855 5855 5856 5856 5857 5858 5859 5859 5860 5861 5861 5862 5863 5865 5867 5867 5868 5869 5870 5871 5872 5873 5875 5876 5878 5881 5884 5888 5890 5890 5890 5891 5893 5896 5898 5900 5901 5901 5899 5898 5897 5898 5899 5900 5900 5902 5903 5905 5906 5906 5905 5905 5906 5906
5843 5844 5844 5844 5844 5842 5840 5842 5843 5842 5843 5845 5845 5844 5843 5843 5843 5845 5845 5847 5851 5848 5846 5847 5850 5853 5852 5849 5847 5849 5853 5854 5853 5853 5853 5853 5853 5853 5855 5855 5855 5857 5858 5859 5859 5859 5861 5863 5863 5863 5864 5866 5867 5869 5869 5871 5872 5874 5876 5878 5882 5887 5889 5890 5890 5890 5891 5892 5895 5898 5900 5899 5897 5896 5895 5896 5897 5897 5899 5900 5901 5902 5904 5905 5905 5904 5905 5905
5837 5837 5838 5839 5839 5838 5835 5835 5836 5837 5838 5839 5840 5839 5838 5838 5838 5840 5840 5841 5846 5847 5842 5842 5846 5848 5847 5845 5846 5847 5848 5850 5850 5849 5849 5850 5850 5851 5852 5851 5852 5854 5855 5855 5855 5856 5859 5860 5860 5860 5861 5863 5864 5866 5867 5869 5871 5872 5873 5876 5881 5885 5887 5889 5888 5889 5888 5887 5891 5895 5896 5895 5894 5893 5894 5895 5895 5896 5897 5898 5899 5900 5902 5903 5904 5904 5904 5904
5831 5831 5832 5832 5833 5833 5830 5828 5830 5831 5831 5833 5834 5834 5833 5833 5833 5835 5836 5835 5840 5844 5840 5838 5840 5843 5843 5842 5843 5843 5844 5846 5846 5845 5847 5848 5847 5848 5848 5848 5850 5852 5852 5851 5852 5854 5857 5858 5858 5858 5859 5860 5861 5863 5865 5867 5868 5870 5873 5876 5879 5881 5884 5886 5886 5887 5885 5885 5889 5892 5892 5893 5891 5891 5891 5893 5894 5895 5895 5896 5897 5898 5900 5902 5903 5903 5902 5903
5825 5825 5825 5825 5826 5828 5826 5823 5823 5824 5825 5827 5828 5828 5826 5828 5828 5830 5830 5828 5834 5839 5837 5836 5836 5837 5839 5838 5838 5840 5841 5842 5841 5842 5845 5844 5844 5845 5844 5845 5848 5849 5848 5847 5849 5853 5854 5854 5855 5856 5857 5857 5858 5860 5863 5864 5865 5869 5874 5875 5875 5877 5880 5883 5884 5884 5884 5885 5886 5887 5889 5890 5888 5888 5890 5891 5892 5892 5893 5894 5895 5896 5898 5899 5901 5901 5901 5902
5818 5818 5818 5818 5818 5820 5821 5818 5817 5818 5819 5820 5822 5822 5821 5822 5823 5824 5824 5822 5827 5832 5832 5832 5831 5833 5835 5834 5835 5837 5837 5838 5837 5838 5840 5839 5840 5841 5841 5843 5845 5845 5844 5843 5847 5850 5850 5851 5853 5854 5854 5854 5856 5859 5861 5861 5863 5869 5873 5871 5873 5875 5876 5880 5881 5882 5883 5883 5880 5881 5884 5885 5884 5886 5888 5889 5889 5889 5890 5892 5894 5894 5895 5897 5898 5899 5900 5901
5811 5810 5811 5811 5811 5811 5813 5813 5812 5810 5812 5814 5815 5816 5816 5817 5817 5818 5817 5815 5821 5826 5826 5827 5827 5828 5829 5829 5831 5832 5833 5834 5834 5833 5834 5835 5837 5838 5839 5841 5840 5840 5840 5840 5844 5847 5847 5849 5850 5849 5850 5852 5854 5857 5858 5858 5861 5868 5869 5868 5871 5872 5873 5876 5877 5879 5881 5877 5875 5878 5880 5879 5880 5883 5885 5885 5885 5887 5889 5891 5892 5893 5893 5895 5896 5897 5899 5900
5803 5803 5802 5803 5804 5803 5803 5806 5807 5805 5804 5806 5808 5809 5810 5810 5811 5811 5809 5811 5817 5820 5820 5822 5823 5823 5823 5824 5826 5827 5828 5829 5828 5827 5828 5831 5833 5834 5835 5836 5835 5836 5836 5836 5841 5844 5845 5846 5845 5845 5848 5850 5852 5853 5854 5855 5859 5864 5865 5865 5867 5868 5870 5872 5872 5875 5874 5869 5870 5875 5876 5876 5877 5878 5879 5880 5882 5886 5889 5890 5891 5892 5891 5892 5894 5896 5897 5899
5796 5795 5794 5794 5795 5796 5795 5795 5799 5800 5798 5798 5800 5802 5803 5803 5804 5803 5801 5808 5814 5812 5813 5816 5815 5816 5818 5818 5820 5821 5822 5823 5823 5823 5824 5826 5828 5829 5831 5832 5832 5832 5832 5834 5839 5842 5841 5841 5842 5844 5846 5847 5848 5849 5850 5852 5855 5859 5860 5861 5863 5865 5867 5867 5867 5868 5864 5861 5867 5873 5874 5874 5871 5872 5875 5877 5881 5885 5886 5888 5890 5891 5890 5891 5892 5894 5896 5898
5787 5786 5785 5784 5785 5787 5787 5786 5788 5792 5793 5793 5792 5793 5795 5795 5795 5794 5797 5806 5807 5803 5805 5808 5807 5809 5811 5811 5813 5815 5816 5817 5818 5818 5819 5821 5823 5824 5827 5828 5829 5829 5830 5832 5836 5837 5837 5838 5840 5841 5842 5844 5845 5846 5848 5849 5850 5853 5856 5857 5858 5860 5861 5861 5861 5860 5857 5858 5865 5870 5872 5868 5864 5868 5874 5876 5878 5881 5882 5885 5888 5889 5890 5890 5891 5892 5894 5896
5778 5777 5775 5774 5774 5775 5778 5779 5779 5782 5785 5786 5785 5785 5786 5786 5786 5789 5794 5799 5798 5796 5798 5800 5801 5803 5803 5804 5807 5809 5810 5812 5813 5813 5814 5816 5817 5819 5822 5824 5825 5825 5827 5829 5830 5831 5832 5834 5835 5836 5838 5841 5842 5843 5844 5845 5847 5849 5851 5852 5853 5855 5855 5854 5855 5856 5855 5858 5863 5868 5868 5862 5861 5866 5871 5873 5876 5878 5880 5883 5885 5887 5888 5889 5889 5890 5891 5893
5769 5768 5766 5764 5764 5765 5768 5769 5771 5772 5774 5776 5777 5777 5777 5777 5780 5783 5788 5791 5791 5790 5790 5791 5794 5795 5795 5797 5801 5803 5806 5807 5807 5808 5809 5809 5811 5814 5817 5819 5820 5822 5823 5824 5824 5826 5828 5829 5831 5833 5836 5838 5839 5840 5842 5844 5845 5845 5848 5849 5849 5850 5850 5851 5853 5854 5855 5857 5861 5865 5861 5856 5858 5863 5867 5872 5874 5875 5877 5879 5883 5885 5886 5887 5887 5887 5889 5890
5760 5758 5756 5754 5754 5757 5757 5758 5761 5762 5763 5765 5766 5767 5768 5771 5774 5775 5778 5780 5781 5782 5782 5783 5785 5787 5789 5792 5794 5797 5800 5802 5802 5802 5802 5803 5806 5810 5812 5814 5817 5818 5819 5819 5821 5823 5823 5826 5831 5832 5832 5834 5835 5837 5840 5840 5840 5842 5844 5844 5842 5845 5848 5850 5851 5853 5855 5856 5857 5859 5855 5853 5858 5861 5865 5869 5870 5871 5874 5876 5879 5882 5883 5884 5884 5884 5886 5888
5749 5748 5745 5742 5745 5747 5746 5747 5750 5751 5752 5754 5754 5756 5760 5763 5765 5765 5767 5769 5771 5774 5777 5777 5777 5779 5783 5785 5786 5789 5792 5794 5797 5796 5797 5797 5799 5803 5806 5809 5812 5813 5814 5816 5818 5819 5819 5823 5829 5828 5826 5829 5831 5834 5835 5835 5836 5838 5838 5837 5839 5844 5848 5848 5848 5851 5853 5851 5851 5853 5852 5853 5857 5858 5862 5866 5867 5869 5871 5872 5875 5878 5879 5880 5880 5882 5884 5886
5737 5737 5733 5731 5734 5735 5735 5737 5738 5739 5741 5742 5743 5747 5751 5752 5754 5755 5757 5759 5761 5764 5768 5769 5769 5771 5774 5776 5778 5780 5781 5784 5788 5789 5792 5792 5791 5796 5801 5803 5806 5808 5810 5812 5813 5814 5815 5817 5823 5823 5822 5826 5829 5830 5830 5830 5832 5833 5833 5835 5839 5843 5844 5844 5844 5846 5847 5845 5845 5849 5850 5851 5853 5855 5858 5862 5864 5867 5869 5869 5872 5875 5876 5876 5877 5879 5882 5883
5724 5724 5719 5719 5721 5721 5723 5726 5725 5727 5728 5730 5733 5736 5738 5741 5743 5745 5746 5748 5749 5752 5756 5759 5761 5763 5765 5767 5769 5769 5770 5774 5777 5780 5784 5785 5785 5791 5795 5797 5800 5803 5806 5807 5807 5808 5810 5811 5816 5819 5819 5821 5824 5824 5823 5824 5826 5828 5831 5834 5836 5836 5837 5838 5838 5839 5840 5840 5840 5844 5846 5847 5848 5851 5855 5860 5862 5865 5867 5867 5869 5871 5873 5874 5876 5877 5879 5881
5709 5710 5704 5705 5708 5706 5710 5713 5712 5714 5715 5717 5722 5724 5726 5729 5732 5733 5734 5736 5738 5741 5743 5746 5750 5753 5755 5757 5759 5759 5760 5763 5767 5769 5773 5777 5780 5785 5789 5790 5793 5797 5800 5801 5801 5803 5805 5805 5808 5813 5815 5817 5817 5815 5815 5818 5822 5825 5827 5828 5830 5831 5832 5834 5833 5833 5836 5836 5837 5840 5841 5842 5844 5848 5852 5856 5859 5863 5865 5865 5866 5868 5870 5872 5874 5875 5877 5878
5693 5695 5688 5689 5693 5693 5697 5698 5696 5699 5701 5705 5709 5710 5712 5716 5718 5720 5722 5724 5727 5729 5731 5734 5738 5743 5745 5747 5750 5751 5751 5753 5757 5759 5764 5770 5774 5780 5784 5784 5786 5789 5793 5795 5796 5798 5798 5797 5801 5807 5810 5809 5807 5807 5810 5816 5819 5820 5821 5822 5824 5826 5827 5829 5829 5829 5831 5832 5834 5836 5836 5837 5842 5846 5849 5852 5856 5860 5862 5863 5864 5865 5868 5870 5872 5873 5874 5875
5677 5678 5671 5670 5678 5681 5681 5680 5680 5683 5687 5691 5694 5695 5699 5702 5705 5708 5709 5711 5713 5715 5718 5721 5725 5730 5734 5738 5742 5743 5742 5745 5748 5751 5755 5762 5767 5773 5778 5780 5781 5784 5785 5787 5788 5790 5791 5792 5795 5801 5801 5800 5802 5806 5809 5812 5814 5816 5818 5819 5821 5823 5824 5824 5824 5825 5826 5827 5829 5832 5832 5834 5838 5842 5846 5849 5853 5857 5859 5861 5862 5863 5866 5867 5869 5871 5872 5873
5659 5661 5654 5653 5662 5667 5664 5662 5664 5667 5670 5675 5678 5680 5685 5688 5690 5693 5695 5697 5699 5701 5704 5707 5711 5716 5719 5725 5732 5733 5732 5735 5738 5742 5747 5752 5758 5764 5768 5769 5772 5775 5777 5778 5781 5785 5788 5788 5788 5791 5793 5795 5800 5804 5805 5807 5809 5811 5813 5816 5818 5819 5819 5820 5820 5822 5824 5824 5826 5829 5828 5830 5835 5839 5843 5847 5850 5854 5855 5856 5858 5860 5862 5864 5865 5868 5869 5871
5641 5642 5637 5637 5645 5648 5646 5646 5647 5648 5653 5659 5660 5663 5669 5672 5674 5677 5679 5681 5684 5686 5691 5695 5697 5700 5703 5709 5718 5720 5721 5725 5729 5732 5737 5743 5749 5754 5753 5754 5760 5766 5769 5771 5774 5778 5780 5779 5779 5783 5788 5792 5795 5797 5798 5800 5802 5803 5805 5810 5813 5813 5815 5818 5819 5821 5823 5822 5823 5824 5822 5826 5834 5837 5840 5844 5847 5849 5851 5852 5854 5856 5858 5860 5861 5863 5865 5867
5623 5624 5620 5620 5627 5630 5627 5628 5629 5629 5635 5641 5642 5645 5652 5655 5656 5659 5661 5665 5669 5673 5678 5681 5682 5684 5688 5696 5704 5707 5709 5714 5719 5721 5726 5733 5738 5741 5741 5745 5753 5756 5757 5759 5763 5768 5770 5771 5773 5776 5779 5782 5784 5785 5787 5790 5793 5795 5799 5804 5808 5810 5812 5813 5815 5817 5817 5817 5819 5819 5816 5822 5832 5835 5837 5840 5842 5845 5848 5849 5850 5851 5853 5855 5857 5859 5862 5863
5606 5607 5605 5603 5609 5613 5610 5609 5611 5614 5619 5622 5625 5630 5635 5637 5639 5643 5646 5649 5653 5657 5660 5664 5666 5670 5675 5682 5689 5692 5694 5702 5709 5711 5715 5722 5727 5731 5733 5739 5744 5745 5746 5748 5750 5754 5758 5761 5765 5766 5767 5770 5773 5775 5778 5783 5788 5791 5794 5798 5802 5806 5808 5808 5809 5810 5809 5812 5815 5815 5813 5820 5828 5832 5833 5835 5837 5841 5844 5845 5846 5847 5849 5851 5853 5856 5858 5860
5588 5590 5591 5589 5592 5596 5595 5593 5596 5600 5603 5606 5610 5616 5619 5621 5624 5629 5633 5636 5640 5642 5644 5648 5651 5655 5662 5668 5674 5677 5681 5690 5698 5700 5704 5712 5717 5722 5727 5731 5734 5735 5739 5742 5742 5745 5749 5751 5755 5758 5760 5765 5770 5775 5779 5782 5784 5786 5789 5792 5796 5801 5804 5804 5804 5803 5805 5810 5812 5812 5813 5817 5822 5827 5830 5832 5834 5838 5841 5842 5843 5844 5845 5847 5849 5852 5855 5856
5575 5576 5577 5578 5579 5581 5581 5581 5583 5587 5589 5591 5596 5601 5604 5607 5610 5616 5620 5623 5627 5629 5631 5635 5638 5641 5648 5654 5659 5662 5668 5677 5685 5687 5694 5702 5708 5714 5719 5722 5725 5728 5732 5735 5737 5741 5742 5743 5747 5751 5755 5761 5768 5774 5779 5780 5780 5782 5786 5788 5791 5796 5799 5799 5798 5799 5804 5807 5807 5810 5814 5815 5817 5822 5825 5828 5831 5835 5838 5840 5840 5841 5842 5843 5845 5847 5850 5852
5567 5567 5567 5569 5570 5571 5571 5571 5572 5575 5578 5579 5583 5588 5591 5594 5597 5603 5607 5609 5614 5616 5618 5622 5625 5627 5634 5640 5644 5650 5657 5665 5672 5677 5684 5693 5700 5705 5710 5713 5717 5722 5726 5727 5730 5733 5735 5738 5743 5745 5748 5756 5763 5767 5772 5776 5776 5778 5781 5783 5786 5790 5792 5794 5796 5798 5801 5801 5803 5809 5812 5812 5814 5819 5821 5824 5828 5832 5834 5836 5837 5838 5839 5840 5841 5843 5845 5847
5561 5562 5561 5562 5564 5565 5565 5565 5565 5567 5570 5571 5574 5577 5580 5583 5587 5591 5594 5597 5603 5606 5606 5609 5612 5613 5619 5627 5633 5639 5646 5652 5659 5667 5674 5682 5690 5697 5702 5706 5710 5715 5718 5720 5722 5724 5727 5733 5738 5739 5741 5748 5755 5760 5765 5769 5771 5773 5775 5778 5781 5784 5786 5788 5792 5796 5797 5798 5801 5806 5808 5808 5812 5816 5817 5820 5824 5827 5829 5831 5833 5834 5835 5836 5837 5839 5841 5844
5558 5558 5558 5559 5560 5561 5561 5561 5561 5563 5566 5566 5567 5570 5572 5575 5578 5581 5584 5587 5593 5596 5596 5597 5601 5603 5609 5616 5621 5627 5634 5639 5647 5656 5663 5670 5679 5688 5693 5699 5705 5709 5712 5714 5716 5717 5721 5727 5731 5733 5735 5739 5746 5753 5759 5762 5765 5768 5770 5772 5775 5778 5781 5783 5786 5790 5792 5795 5798 5801 5801 5803 5808 5813 5814 5816 5819 5822 5825 5826 5828 5830 5831 5832 5832 5834 5837 5839
5556 5556 5556 5557 5558 5558 5557 5558 5558 5560 5562 5562 5561 5564 5567 5570 5572 5574 5577 5580 5584 5588 5588 5588 5591 5595 5600 5605 5610 5617 5622 5626 5634 5644 5651 5659 5669 5677 5683 5690 5696 5700 5705 5709 5710 5711 5715 5721 5725 5727 5729 5732 5739 5746 5751 5756 5761 5762 5764 5766 5768 5771 5775 5778 5780 5784 5787 5790 5794 5795 5796 5799 5806 5809 5810 5811 5814 5817 5820 5823 5824 5825 5827 5828 5828 5831 5833 5835
5555 5555 5555 5555 5556 5556 5555 5556 5557 5558 5559 5558 5558 5561 5563 5565 5566 5568 5572 5576 5578 5580 5581 5582 5584 5587 5590 5597 5603 5607 5609 5614 5623 5633 5641 5648 5657 5665 5673 5681 5686 5691 5697 5701 5704 5706 5709 5715 5720 5722 5723 5727 5733 5739 5746 5752 5753 5751 5753 5759 5763 5766 5769 5773 5777 5779 5783 5787 5789 5790 5792 5797 5802 5805 5805 5806 5809 5813 5816 5819 5821 5822 5824 5824 5825 5828 5829 5830